Location: Newark
(29.0900°N, 59.8100°E)
Time: 19:21:21
(UTC+00:00)

Envisat - Visible Passes

Search period start: 21 July 2019 00:00
Search period end: 31 July 2019 00:00
Orbit: 764 x 766 km, 98.1° (Epoch: 21 July)

Date Brightness Start Highest point End Pass type
(mag) Time Alt. Az. Time Alt. Az. Time Alt. Az.
21 Jul 5.5 15:24:48 10° SSW 15:28:44 23° W 15:32:41 10° NW visible
23 Jul 6.0 15:52:50 10° WSW 15:54:26 11° W 15:56:02 10° WNW visible
26 Jul 5.8 15:40:10 10° SW 15:43:06 15° W 15:46:03 10° WNW visible
29 Jul 5.6 15:28:05 10° SW 15:31:47 20° W 15:35:31 10° NW visible
